sat.trackr.live / text

‹ back to catalog

GAOFEN-5 01A

NORAD 54640 · 2022-165A

PAYLOAD ACTIVE UNKNOWN

§ Identity

Operator
Country
PRC
Launch date
2022-12-08
Launch site
TAISC
Launch vehicle
Mass (kg)
RCS (m²)

External: N2YO · Heavens-Above · Gunter

§ Orbital elements

Epoch: 2026-05-25T04:25:55.545888Z

Period
98.79 min
Inclination
98.2347°
Eccentricity
0.0003128
Mean motion
14.57675279 rev/d
Perigee alt
698.5 km
Apogee alt
702.9 km
Semi-major
7,078.8 km
B*
9.0042e-5
RAAN
82.7501°
Arg perigee
81.7217°
Mean anomaly
278.4336°
Rev number
18,406

§ Raw data

GAOFEN-5 01A1 54640U 22165A   26145.18467067  .00000365  00000+0  90042-4 0  99942 54640  98.2347  82.7501 0003128  81.7217 278.4336 14.57675279184062

JSON: /api/v1/satellites/54640 · /tle

For live sub-satellite position, see the globe view (requires WebGL).

§ Visibility from observer

Set your observer location to see the next 7 days of passes ≥ 10°. The values pass through the URL so the page stays shareable.

No JS? Fill the form by hand. The geolocation button needs JavaScript.